Home > Weather > Ansbach > Past weeks

Flag for Germany Weather for the Past 2 Weeks in Ansbach, Bavaria, Germany

Now
48 °F

Sunny.


Feels Like: 45 °F
Forecast: 46 / 69 °F
Wind: 8 mph from East

Location: Ansbach / Katterbach

Current Time: May 5, 2016 at 9:37:43 AM

Latest Report: May 5, 2016 at 8:58 AM


Visibility: N/A

Pressure: 30.35 "Hg

Humidity: 71%

Dew Point: 39 °F

Location of AnsbachLocation

Historic Weather in Ansbach — Graph

°F

Ansbach Temperature Yesterday

Maximum temperature yesterday: 55 °F (at 2:58 PM)
Minimum temperature yesterday: 41 °F (at 3:58 AM)
Average temperature yesterday: 48 °F

High & Low Weather Summary for the Past Weeks

 TemperatureHumidityPressure
High64 °F (Apr 21, 5:58 PM)100% (Apr 23, 11:58 PM)30.47 "Hg (Apr 23, 11:58 PM)
Low30 °F (Apr 24, 6:58 AM)30% (Apr 21, 5:58 PM)29.57 "Hg (Apr 26, 9:03 AM)
Average45 °F68%30.05 "Hg
* Reported Apr 20 7:58 AM — May 5 7:58 AM, Ansbach, Weather by CustomWeather, © 2016

Note: Actual official high and low records may vary slightly from our data, if they occured in-between our weather recording intervals... More about our weather records

Advertising

Ansbach Weather History for the Previous 24 Hours

Scroll right to see more
 ConditionsComfort  
Time TempWeatherWind HumidityBarometerVisibility
7:58 AM
Thu, May 5
45 °FPassing clouds.6 mph76%30.37 "HgN/A
6:58 AM39 °FSunny.6 mph87%30.36 "HgN/A
5:58 AM36 °FClear.5 mph87%30.37 "HgN/A
4:58 AM39 °FClear.2 mph81%30.37 "HgN/A
3:58 AM39 °FClear.3 mph87%30.37 "HgN/A
2:58 AM41 °FClear.3 mph76%30.38 "HgN/A
1:58 AM41 °FClear.5 mph70%30.39 "HgN/A
12:58 AM41 °FClear.6 mph70%30.40 "HgN/A
11:58 PM
Wed, May 4
43 °FClear.9 mph61%30.40 "HgN/A
10:58 PM46 °FClear.6 mph50%30.39 "HgN/A
9:58 PM48 °FClear.7 mph43%30.39 "HgN/A
8:58 PM50 °FSunny.7 mph40%30.37 "HgN/A
7:58 PM52 °FSunny.6 mph41%30.36 "HgN/A
6:58 PM54 °FOvercast.7 mph35%30.35 "HgN/A
5:58 PM55 °FSunny.9 mph33%30.36 "HgN/A
4:58 PM55 °FPassing clouds.7 mph33%30.35 "HgN/A
3:58 PM55 °FPassing clouds.10 mph36%30.36 "HgN/A
2:58 PM55 °FPassing clouds.9 mph38%30.36 "HgN/A
1:58 PM54 °FSunny.12 mph35%30.37 "HgN/A
12:58 PM54 °FSunny.5 mph38%30.37 "HgN/A
11:58 AM52 °FSunny.8 mph47%30.39 "HgN/A
10:58 AM50 °FSunny.6 mph50%30.40 "HgN/A
9:58 AM48 °FSunny.8 mph54%30.40 "HgN/A
Weather by CustomWeather, © 2016

See weather overviewHow to use our weather pages